Content
SEND FEEDBACK

Daily
Averages
Monthly
Summary
United States of America

STATEN ISLAND, NEW YORK


Home > North America > United States > New York
Elevation: 152 feet     Latitude: 40 35N     Longitude: 074 09W

WEATHER
 
SELECT A DAY
Number of Records: 191,801;   Date Range: 1/1/95 - 9/30/14
 
SHARE

PRINT THIS DATA

[ ← Previous Day ]
WEATHER ALMANAC - JULY 13, 2013
[ Next Day → ]
[ °C ]   °F
Weather ElementAverageHighLow
Temperature75.3 °F82.9 °F (1:51 pm)69.1 °F (2:51 am)
Dewpoint72.2 °F75.2 °F (3:25 pm)68 °F (12:51 am)
Humidity90.1 %100 % (3:46 am)69 % (1:51 pm)
Barometer30.21 in30.28 in (10:51 pm)30.10 in (12:51 am)
Wind Speed5.4 mph9.2 mph (12:51 am)
Weather ElementAverage
Visibility7.4 mi
Wind DirectionNE (50.3 °)

Weather ElementTotal
Precipitation1.16 in
Cooling Degree Days11 (Base 65)
Growing Degree Days26 (Base 50)
Averaged from 31 records on July 13, 2013
WEATHER CONDITIONS BREAKOUT
WIND DIRECTION BREAKOUT
WEATHER BY HOUR - JULY 13, 2013
[ °C ]   °F
Local TimeTemperatureDewpointHumidityBarometerVisibilityWind DirectionWind SpeedGust SpeedPrecipitationEventsConditions
12:51 AM70.0 °F68.0 °F93 %30.10 in10.0 miENE (60°)9.2 mph0.00 inRainLight Rain
1:51 AM70.0 °F68.0 °F93 %30.12 in8.0 miNE (40°)9.2 mph0.00 inRainLight Rain
2:51 AM69.1 °F68.0 °F96 %30.11 in6.0 miNNE (30°)9.2 mph0.01 inRainLight Rain
3:46 AM69.8 °F69.8 °F100 %30.12 in5.0 miNE (50°)8.1 mph0.00 inRainLight Rain
3:51 AM70.0 °F69.1 °F97 %30.12 in5.0 miNE (40°)8.1 mph0.00 inRainLight Rain
4:51 AM71.1 °F70.0 °F96 %30.14 in5.0 miCalm0.01 inRainLight Rain
5:51 AM71.1 °F70.0 °F96 %30.15 in5.0 miNE (50°)5.8 mph0.00 inOvercast
6:51 AM72.0 °F70.0 °F93 %30.17 in5.0 miNNE (30°)6.9 mphOvercast
7:51 AM72.0 °F71.1 °F97 %30.19 in5.0 miNE (50°)4.6 mph0.00 inOvercast
8:51 AM73.0 °F71.1 °F93 %30.22 in4.0 miNE (40°)6.9 mph0.00 inRainLight Rain
9:48 AM73.4 °F71.6 °F94 %30.22 in9.0 miNNE (30°)5.8 mph0.00 inOvercast
9:51 AM73.9 °F72.0 °F93 %30.22 in9.0 miNE (40°)5.8 mph0.00 inOvercast
10:46 AM77.0 °F73.4 °F89 %30.23 in9.0 miNNE (20°)4.6 mphMostly Cloudy
10:51 AM77.0 °F72.0 °F84 %30.23 in9.0 miNNE (30°)5.8 mphMostly Cloudy
11:51 AM78.1 °F73.9 °F87 %30.23 in9.0 miNE (50°)4.6 mphMostly Cloudy
12:51 PM81.0 °F72.0 °F74 %30.23 in10.0 miVariable4.6 mphOvercast
1:51 PM82.9 °F72.0 °F69 %30.22 in10.0 miENE (70°)8.1 mphOvercast
2:31 PM78.8 °F73.4 °F83 %30.22 in2.0 miEast (100°)8.1 mph0.10 inRainHeavy Rain
2:51 PM77.0 °F73.9 °F90 %30.24 in2.0 miESE (110°)5.8 mph0.35 inRainHeavy Rain
3:25 PM77.0 °F75.2 °F94 %30.23 in5.0 miENE (60°)5.8 mph0.33 inRainLight Rain
3:51 PM78.1 °F75.0 °F90 %30.22 in5.0 miNE (50°)5.8 mph0.34 inRainLight Rain
4:51 PM79.0 °F75.0 °F88 %30.23 in7.0 miEast (80°)3.5 mph0.00 inOvercast
5:51 PM78.1 °F75.0 °F90 %30.24 in8.0 miENE (70°)5.8 mph0.02 inOvercast
6:51 PM79.0 °F73.9 °F84 %30.25 in8.0 miVariable4.6 mphOvercast
7:43 PM78.8 °F73.4 °F83 %30.26 in10.0 miENE (70°)3.5 mphOvercast
7:51 PM78.1 °F73.9 °F87 %30.25 in10.0 miENE (70°)3.5 mphMostly Cloudy
8:51 PM77.0 °F73.9 °F90 %30.26 in10.0 miSSE (150°)5.8 mphOvercast
9:34 PM75.2 °F73.4 °F94 %30.26 in10.0 miCalmMostly Cloudy
9:51 PM75.9 °F73.0 °F91 %30.27 in10.0 miEast (90°)3.5 mphMostly Cloudy
10:51 PM75.9 °F73.9 °F94 %30.28 in10.0 miEast (80°)3.5 mph0.00 inRainLight Rain
11:51 PM75.9 °F73.0 °F91 %30.27 in10.0 miCalm0.00 inMostly Cloudy
Hourly data recorded from KEWR, located miles away from Staten Island, New York







STORIES FROM OUR PARTNERS